Location: Newark
(46.7636°N, 1.8358°W)
Time: 21:25:14
(UTC+00:00)

Vanguard 2 Rocket - Visible Passes

Search period start: 20 October 2019 00:00
Search period end: 30 October 2019 00:00
Orbit: 553 x 3327 km, 32.9° (Epoch: 20 October)

Date Brightness Start Highest point End Pass type
(mag) Time Alt. Az. Time Alt. Az. Time Alt. Az.
20 Oct 11.3 05:59:18 10° SE 06:04:40 12° SE 06:10:26 10° ESE visible
23 Oct 11.1 05:13:54 10° SE 05:17:15 11° SE 05:20:48 10° ESE visible
25 Oct 10.8 05:21:36 10° SSE 05:29:41 17° SE 05:39:29 10° E visible
27 Oct 10.5 05:32:40 10° S 05:42:16 24° SE 05:54:55 10° E visible
28 Oct 10.6 04:36:16 10° SSE 04:42:34 15° SE 04:50:16 10° E visible
29 Oct 10.2 05:44:50 10° SSW 05:55:02 30° SE 06:09:23 10° E visible
